Tracking 30743 objects as of 21-Jun-2025
HD Live streaming from Space Station
objects crossing your sky now

STARLINK-30109

Track STARLINK-30109 now!
10-day predictions
STARLINK-30109 is classified as:


NORAD ID: 56298
Int'l Code: 2023-056N
Perigee: 565.2 km
Apogee: 567.2 km
Inclination: 43.0 °
Period: 95.8 minutes
Semi major axis: 6937 km
RCS: Unknown
Launch date: April 19, 2023
Source: United States (US)
Launch site: AIR FORCE EASTERN TEST RANGE (AFETR)
Your satellite tracking list
Your tracking list is empty




NASA's NSSDC Master Catalog

Two Line Element Set (TLE):
1 56298U 23056N   25171.38295805  .00000647  00000-0  62984-4 0  9992
2 56298  43.0021 195.7246 0001397 283.3350  76.7337 15.02541548120629
Source of the keplerian elements: AFSPC